Location: Hobi?a Gr?di?te
(45.4833°N, 22.7833°E)
Time: 19:17:00
(UTC+00:00)

Cosmos 1140 Rocket - Visible Passes

Search period start: 01 October 2023 00:00
Search period end: 11 October 2023 00:00
Orbit: 742 x 766 km, 74.1° (Epoch: 30 September)

Date Brightness Start Highest point End Pass type
(mag) Time Alt. Az. Time Alt. Az. Time Alt. Az.
01 Oct 4.9 03:50:10 10° N 03:55:10 43° ENE 04:00:08 10° SE visible
01 Oct 4.5 18:26:46 10° SSW 18:34:14 33° NNE 18:37:04 10° NNE visible
01 Oct 5.9 20:13:58 18° NW 20:14:16 18° NW 20:17:49 10° N visible
02 Oct 5.8 03:09:22 10° N 03:13:44 26° NE 03:18:05 10° ESE visible
02 Oct 3.8 17:46:05 10° S 17:50:50 40° ESE 17:55:40 10° NE visible
02 Oct 5.2 19:28:14 10° WSW 19:32:42 29° WNW 19:37:15 10° N visible
03 Oct 6.3 02:28:56 10° NNE 02:32:09 16° NE 02:35:21 10° E visible
03 Oct 4.5 17:06:02 10° SSE 17:09:57 22° E 17:13:53 10° NE visible
03 Oct 4.2 18:46:20 10° SW 18:51:19 50° WNW 18:56:23 10° NNE visible
04 Oct 4.4 03:28:18 10° NNW 03:33:27 53° ENE 03:38:33 10° SE visible
04 Oct 3.4 18:04:56 10° SSW 18:10:05 89° WNW 18:15:19 10° NNE visible
04 Oct 6.2 19:49:42 10° W 19:52:40 15° NW 19:55:38 10° NNW visible
05 Oct 5.4 02:47:24 10° N 02:52:05 31° ENE 02:56:43 10° ESE visible
05 Oct 3.6 17:24:02 10° S 17:28:59 51° ESE 17:34:01 10° NNE visible
05 Oct 5.6 19:06:53 10° WSW 19:11:03 24° NW 19:15:16 10° N visible
06 Oct 6.1 02:06:48 10° N 02:10:33 19° NE 02:14:17 10° E visible
06 Oct 3.5 03:47:38 10° NNW 03:52:52 70° WSW 03:58:03 10° S visible
06 Oct 4.3 16:43:42 10° SSE 16:48:02 28° E 16:52:24 10° NE visible
06 Oct 4.7 18:24:45 10° SW 18:29:36 40° WNW 18:34:31 10° N visible
07 Oct 6.5 01:26:51 10° NNE 01:28:52 12° NE 01:30:52 10° ENE visible
07 Oct 3.9 03:06:27 10° NNW 03:11:42 67° ENE 03:16:54 10° SSE visible
07 Oct 3.7 17:43:10 10° SSW 17:48:18 71° WNW 17:53:31 10° NNE visible
07 Oct 6.5 19:28:55 10° WNW 19:31:05 12° NW 19:33:16 10° NNW visible
08 Oct 4.9 02:25:29 10° N 02:30:23 38° ENE 02:35:16 10° SE visible
08 Oct 4.3 04:07:28 10° NW 04:12:00 30° W 04:16:32 10° SSW visible
08 Oct 3.4 17:02:03 10° S 17:07:09 65° ESE 17:12:18 10° NNE visible
08 Oct 5.9 18:45:37 10° W 18:49:25 20° NW 18:53:14 10° N visible
09 Oct 5.7 01:44:44 10° N 01:48:55 23° NE 01:53:05 10° ESE visible
09 Oct 3.6 03:25:55 10° NNW 03:31:02 55° WSW 03:36:07 10° S visible
09 Oct 4.0 16:21:28 10° SSE 16:26:08 35° ESE 16:30:50 10° NE visible
09 Oct 5.2 18:03:16 10° WSW 18:07:54 33° WNW 18:12:35 10° N visible
10 Oct 6.3 01:04:25 10° NNE 01:07:18 15° NE 01:10:10 10° E visible
10 Oct 3.5 02:44:38 10° NNW 02:49:55 84° ENE 02:55:09 10° SSE visible
10 Oct 4.2 17:21:28 10° SW 17:26:32 56° WNW 17:31:40 10° NNE visible
10 Oct 6.6 19:08:54 10° NW 19:09:32 10° NW 19:10:10 10° NW visible
